This demonstration page uses our WeatherBlox Daily Observations layout. Learn more.

Left ArrowRight Arrow

38.80484, -77.04692

Hourly Observations for May 18, 2021

Temp ( °F °C ) Dew Point ( °F °C ) Humidity (%) Winds ( mph kmh ) Pressure ( in mb ) Visibility ( mi km ) Precip ( " mm )
12:52 am 00:52 Mostly Cloudy 61 16.1 48 8.9 63 63 SSW 5 7 30.33 1027 10 16 N/A
1:52 am 01:52 Mostly Cloudy 60 15.6 48 8.9 65 65 SSW 3 6 30.32 1027 10 16 N/A
2:52 am 02:52 Mostly Cloudy 59 15 48 8.9 67 67 W 3 6 30.33 1027 10 16 N/A
3:52 am 03:52 Mostly Cloudy 58 14.4 49 9.4 72 72 WSW 3 6 30.34 1027 10 16 N/A
4:52 am 04:52 Mostly Cloudy 56 13.3 49 9.4 77 77 SSW 3 6 30.34 1027 10 16 N/A
5:52 am 05:52 Mostly Cloudy 56 13.3 49 9.4 77 77 N N/A 30.35 1028 10 16 N/A
6:52 am 06:52 Mostly Sunny 57 13.9 51 10.6 81 81 SSW 3 6 30.36 1028 10 16 N/A
7:52 am 07:52 Mostly Sunny 61 16.1 53 11.7 75 75 N N/A 30.38 1029 10 16 N/A
8:52 am 08:52 Partly Cloudy 65 18.3 53 11.7 66 66 SSE 5 7 30.39 1029 10 16 N/A
9:52 am 09:52 Mostly Sunny 68 20 51 10.6 55 55 SSE 6 9 30.40 1030 10 16 N/A
10:52 am 10:52 Mostly Sunny 72 22.2 49 9.4 44 44 SSE 7 11 30.40 1030 10 16 N/A
11:52 am 11:52 Mostly Sunny 74 23.3 48 8.9 40 40 S 12 19 30.39 1029 10 16 N/A
12:52 pm 12:52 Partly Cloudy 76 24.4 49 9.4 39 39 S 9 15 30.38 1029 10 16 N/A
1:52 pm 13:52 Partly Cloudy 77 25 49 9.4 37 37 S 10 17 30.36 1028 10 16 N/A
2:52 pm 14:52 Partly Cloudy 77 25 49 9.4 37 37 SSE 8 13 30.34 1028 10 16 N/A
3:52 pm 15:52 Mostly Sunny 78 25.6 48 8.9 35 35 SSE 8 13 30.32 1027 10 16 N/A
4:52 pm 16:52 Partly Cloudy 78 25.6 47 8.3 33 33 SSE 8 13 30.30 1026 10 16 N/A
5:52 pm 17:52 Mostly Sunny 77 25 49 9.4 37 37 S 9 15 30.29 1026 10 16 N/A
6:52 pm 18:52 Mostly Sunny 76 24.4 51 10.6 42 42 S 7 11 30.28 1026 10 16 N/A
7:52 pm 19:52 Mostly Sunny 73 22.8 48 8.9 41 41 S 9 15 30.29 1026 10 16 N/A
8:52 pm 20:52 Mostly Clear 70 21.1 50 10 49 49 S 9 15 30.29 1026 10 16 N/A
9:52 pm 21:52 Mostly Clear 67 19.4 51 10.6 57 57 S 8 13 30.32 1027 9 14 N/A
10:52 pm 22:52 Clear 65 18.3 50 10 59 59 S 7 11 30.33 1027 10 16 N/A
11:52 pm 23:52 Hazy 65 18.3 47 8.3 52 52 S 8 13 30.33 1027 6 10 N/A

Powered by AerisWeather